Location: The Dilly Hill Observatory
(31.5262°N, 86.8310°W)
Time: 16:27:39
(UTC-05:00)

ISS - Pass Details

Date: 28 January 2018
Orbit: 402 x 407 km, 51.6° (Epoch: 25 May)

Event Time Altitude Azimuth Distance (km) Brightness Sun altitude
Rises 17:52:45 0° 266° (W) 2,305 2.0 -7.7°
Maximum altitude 17:57:22 14° 326° (NNW) 1,247 -1.1 -8.7°
Drops below altitude 10° 17:59:07 10° 359° (N) 1,453 -1.2 -9.0°
Enters shadow 18:01:13 - 22° (NNE) 2,046 -0.6 -9.5°
